SVSA/SVZ METAR and TAF weather

Enter ICAO airport designator
Station Type Date Time Source
SVSA METAR 2018/12/05 10:00 UTC NOAA

SVSA 051000Z /////KT 9999 SCT020 20/18 Q1014


Station Type Date Time Source
SVSA Decoded METAR 2018/12/05 10:00 UTC NOAA

San Antonio Del Tachira, Venezuela (SVSA) 07-51N 072-27W 378M
Dec 05, 2018 - 05:00 AM EST / 2018.12.05 1000 UTC
Visibility: greater than 7 mile(s):0
Sky conditions: partly cloudy
Temperature: 68 F (20 C)
Dew Point: 64 F (18 C)
Relative Humidity: 88%
Pressure (altimeter): 29.94 in. Hg (1014 hPa)
ob: SVSA 051000Z /////KT 9999 SCT020 20/18 Q1014
cycle: 10

Station Type Date Time Source
SVSA TAF 2019/04/18 18:06 UTC NOAA

TAF TAF SVSA 181600Z 1818/1918 12002KT 7000 RA OVC016 TX29/18Z TN21/08Z PROB30
TEMPO 1818/1822 12006KT 8000 DZ BKN016

Example: see airport list